AirNav   Pilot Hours Calculator
 
 1241 users online  

61GA Pea Patch Aerodrome
Blythe, Georgia, USA

GOING TO BLYTHE?


FAA INFORMATION EFFECTIVE 02 JANUARY 2020

Location

FAA Identifier: 61GA
Lat/Long: 33-18-06.5120N 082-10-20.4340W
33-18.108533N 082-10.340567W
33.3018089,-82.1723428
(estimated)
Elevation: 434 ft. / 132 m (estimated)
Variation: 03W (1985)
From city: 2 miles N of BLYTHE, GA
Time zone: UTC -5 (UTC -4 during Daylight Saving Time)
Zip code: 30805

Airport Operations

Airport use: Private use. Permission required prior to landing
Activation date: 01/1987
Control tower: no
ARTCC: ATLANTA CENTER
FSS: MACON FLIGHT SERVICE STATION
Attendance: UNATNDD
Wind indicator: yes
Segmented circle: no

Airport Communications

WX ASOS at AGS (11 nm E): PHONE 706-790-0631
WX ASOS at DNL (12 nm NE): 135.275 (706-481-8629)

Nearby radio navigation aids

VOR radial/distance  VOR name  Freq  Var
IRQr185/24.3COLLIERS VORTAC113.9004W

 
NDB name  Hdg/Dist  Freq  Var  ID
BUSHE279/11.323304WAG .- --.
EMORY226/13.138504WEMR . -- .-.
AIKEN236/32.534706WAIK .- .. -.-

Airport Services

Runway Information

Runway 18/36

Dimensions: 2500 x 200 ft. / 762 x 61 m
Surface: turf
RUNWAY 18  RUNWAY 36
Traffic pattern: leftleft
Obstructions: none60 ft. tree, 300 ft. from runway

Airport Ownership and Management from official FAA records

Ownership: Privately-owned
Owner: PEA PATCH AERODROME INC.
C/O DENNIS ALLEN, 3031 LONSDALE DR
AUGUSTA, GA 30906
Phone 706-592-7244
Manager: ED CHRISTIAN
4511 BOULINEAU RD
BLYTHE, GA 30805
Phone 706-790-0511

Airport Operational Statistics

Aircraft based on the field: 27
Single engine airplanes: 25
Ultralights: 2
    

Additional Remarks

FOR CD CTC AUGUSTA APCH AT 706-771-1777.

Instrument Procedures

There are no published instrument procedures at 61GA.

Some nearby airports with instrument procedures:

KAGS - Augusta Regional Airport at Bush Field (11 nm E)
KDNL - Daniel Field Airport (12 nm NE)
KBXG - Burke County Airport (18 nm SE)
2J3 - Louisville Municipal Airport (22 nm SW)
KHQU - Thomson-McDuffie County Airport (22 nm NW)
 
Loc | Ops | Rwys | IFR | FBO | Links
Com | Nav | Svcs | Stats | Notes
Area around 61GA (Pea Patch Aerodrome)
 
Road maps at: MapQuest Bing Google
 
Aerial photo
WARNING: Photo may not be current or correct
Aerial photo of 61GA (Pea Patch Aerodrome)
Photo by Steven Amster
Taken in March 2015
looking northeast.

Do you have a better or more recent aerial photo of Pea Patch Aerodrome that you would like to share? If so, please send us your photo.

 
Sectional chart

 
Airport distance calculator
Flying to Pea Patch Aerodrome? Find the distance to fly.

From to 61GA

Sunrise and sunset
Times for 26-Jan-2020
 Local
(UTC-5)
 Zulu
(UTC)
Morning civil twilight07:0312:03
Sunrise07:2912:29
Sunset17:5322:53
Evening civil twilight18:2023:20

Current date and time
Zulu (UTC)  26-Jan-2020 22:07:22
Local (UTC-5)  26-Jan-2020 17:07:22
 
METAR
KAGS 
11nm E 
262153Z 26008KT 10SM OVC100 15/M01 A3000 RMK AO2 SLP158 T01501011
KDNL 
12nm NE 
262153Z AUTO 29005KT 10SM OVC100 14/M02 A3001 RMK AO2 SLP160 T01441017
K2J3 
22nm SW 
262150Z AUTO 27007KT 10SM OVC095 14/01 A3002 RMK AO2 T01380008
KHQU 
22nm NW 
262155Z AUTO 32004KT 10SM BKN100 12/01 A3001 RMK AO2 T01240007
TAF
KAGS 
11nm E 
261948Z 2620/2718 30008KT P6SM SCT250 FM270200 VRB03KT P6SM BKN080 OVC150 FM270800 VRB04KT P6SM VCSH SCT025 BKN050 OVC120 FM271400 24005KT P6SM SCT035 BKN060 OVC120
KDNL 
12nm NE 
261948Z 2620/2718 30007KT P6SM SCT250 FM270200 VRB03KT P6SM BKN080 OVC150 FM270800 VRB04KT P6SM VCSH SCT025 BKN050 OVC120 FM271400 24006KT P6SM SCT035 BKN060 OVC120
NOTAMs
Click for the latest NOTAMs
NOTAMs are issued by the DoD/FAA and will open in a separate window not controlled by AirNav.

 

 
 

Would you like to see your business listed on this page?

 If your business provides an interesting product or service to pilots, flight crews, aircraft, or users of the Pea Patch Aerodrome, you should consider listing it here.  To start the listing process, click on the button below
 
Add a business
 

Other Pages about Pea Patch Aerodrome

Update a link
 
Copyright © AirNav, LLC. All rights reserved. Privacy Policy  Contact